Time,TemperatureF,DewpointF,PressureIn,WindDirection,WindDirectionDegrees,WindSpeedMPH,WindSpeedGustMPH,Humidity,HourlyPrecipIn,Conditions,Clouds,dailyrainin,SoftwareType,DateUTC
2013-09-21 00:06:00,64.1,60.5,29.83,East,91,0.0,0.0,88,0.00,,,0.00,Wunderground v.1.15,2013-09-21 07:06:00,
2013-09-21 00:11:00,64.0,60.4,29.83,East,91,0.0,0.0,88,0.00,,,0.00,Wunderground v.1.15,2013-09-21 07:11:00,
2013-09-21 00:17:00,64.0,60.4,29.83,East,91,0.0,0.0,88,0.00,,,0.00,Wunderground v.1.15,2013-09-21 07:17:00,
2013-09-21 00:22:00,64.0,60.4,29.83,East,91,0.0,0.0,88,0.00,,,0.00,Wunderground v.1.15,2013-09-21 07:22:00,
2013-09-21 00:28:00,64.0,60.4,29.83,East,91,0.0,0.0,88,0.00,,,0.00,Wunderground v.1.15,2013-09-21 07:28:00,
2013-09-21 00:33:00,64.0,60.4,29.83,East,91,0.0,0.0,88,0.00,,,0.00,Wunderground v.1.15,2013-09-21 07:33:00,
2013-09-21 00:38:00,64.0,60.4,29.83,East,91,0.0,0.0,88,0.00,,,0.00,Wunderground v.1.15,2013-09-21 07:38:00,
2013-09-21 00:44:00,64.0,60.4,29.83,East,91,0.0,0.0,88,0.00,,,0.00,Wunderground v.1.15,2013-09-21 07:44:00,
2013-09-21 00:50:00,64.0,60.4,29.83,East,91,0.0,0.0,88,0.00,,,0.00,Wunderground v.1.15,2013-09-21 07:50:00,
2013-09-21 00:55:00,64.0,60.4,29.83,East,91,0.0,0.0,88,0.00,,,0.00,Wunderground v.1.15,2013-09-21 07:55:00,
2013-09-21 01:03:00,64.0,60.4,29.83,East,91,0.0,0.0,88,0.00,,,0.00,Wunderground v.1.15,2013-09-21 08:03:00,
2013-09-21 01:08:00,64.0,60.1,29.83,East,91,0.0,0.0,87,0.00,,,0.00,Wunderground v.1.15,2013-09-21 08:08:00,
2013-09-21 01:13:00,64.0,60.1,29.82,East,91,0.0,0.0,87,0.00,,,0.00,Wunderground v.1.15,2013-09-21 08:13:00,
2013-09-21 01:19:00,64.0,60.1,29.83,East,91,0.0,0.0,87,0.00,,,0.00,Wunderground v.1.15,2013-09-21 08:19:00,
2013-09-21 01:25:00,64.0,60.4,29.83,East,91,0.0,0.0,88,0.00,,,0.00,Wunderground v.1.15,2013-09-21 08:25:00,
2013-09-21 01:30:00,64.0,60.4,29.83,East,91,0.0,0.0,88,0.00,,,0.00,Wunderground v.1.15,2013-09-21 08:30:00,
2013-09-21 01:36:00,64.0,60.1,29.83,East,91,0.0,0.0,87,0.00,,,0.00,Wunderground v.1.15,2013-09-21 08:36:00,
2013-09-21 01:42:00,63.9,60.0,29.83,East,91,0.0,0.0,87,0.00,,,0.00,Wunderground v.1.15,2013-09-21 08:42:00,
2013-09-21 01:47:00,63.8,59.9,29.82,East,91,0.0,0.0,87,0.00,,,0.00,Wunderground v.1.15,2013-09-21 08:47:00,
2013-09-21 01:52:00,63.8,59.9,29.83,East,91,0.0,0.0,87,0.00,,,0.00,Wunderground v.1.15,2013-09-21 08:52:00,
2013-09-21 01:58:00,63.8,59.9,29.82,East,91,0.0,0.0,87,0.00,,,0.00,Wunderground v.1.15,2013-09-21 08:58:00,
2013-09-21 02:03:00,63.8,59.9,29.82,East,91,0.0,0.0,87,0.00,,,0.00,Wunderground v.1.15,2013-09-21 09:03:00,
2013-09-21 02:08:00,63.7,59.8,29.82,East,91,0.0,0.0,87,0.00,,,0.00,Wunderground v.1.15,2013-09-21 09:08:00,
2013-09-21 02:13:00,63.6,59.7,29.82,East,91,0.0,0.0,87,0.00,,,0.00,Wunderground v.1.15,2013-09-21 09:13:00,
2013-09-21 02:18:00,63.6,59.7,29.82,East,91,0.0,0.0,87,0.00,,,0.00,Wunderground v.1.15,2013-09-21 09:18:00,
2013-09-21 02:23:00,63.5,59.6,29.82,East,91,0.0,0.0,87,0.00,,,0.00,Wunderground v.1.15,2013-09-21 09:23:00,
2013-09-21 02:28:00,63.5,59.6,29.82,East,91,2.0,2.0,87,0.00,,,0.00,Wunderground v.1.15,2013-09-21 09:28:00,
2013-09-21 02:33:00,63.4,59.1,29.82,East,91,0.0,0.0,86,0.00,,,0.00,Wunderground v.1.15,2013-09-21 09:33:00,
2013-09-21 02:38:00,63.4,59.1,29.82,East,91,0.0,3.0,86,0.00,,,0.00,Wunderground v.1.15,2013-09-21 09:38:00,
2013-09-21 02:43:00,63.3,59.0,29.82,East,91,0.0,1.0,86,0.00,,,0.00,Wunderground v.1.15,2013-09-21 09:43:00,
2013-09-21 02:48:00,63.3,59.0,29.82,East,91,0.0,1.0,86,0.00,,,0.00,Wunderground v.1.15,2013-09-21 09:48:00,
2013-09-21 02:53:00,63.3,59.4,29.82,East,91,1.0,3.0,87,0.00,,,0.00,Wunderground v.1.15,2013-09-21 09:53:00,
2013-09-21 02:58:00,63.3,59.4,29.83,East,91,0.0,3.0,87,0.00,,,0.00,Wunderground v.1.15,2013-09-21 09:58:00,
2013-09-21 03:03:00,63.2,59.3,29.83,East,91,0.0,1.0,87,0.00,,,0.00,Wunderground v.1.15,2013-09-21 10:03:00,
2013-09-21 03:08:00,63.1,59.2,29.83,East,91,0.0,6.0,87,0.00,,,0.00,Wunderground v.1.15,2013-09-21 10:08:00,
2013-09-21 03:13:00,63.1,59.2,29.83,East,91,2.0,2.0,87,0.00,,,0.00,Wunderground v.1.15,2013-09-21 10:13:00,
2013-09-21 03:18:00,63.0,59.1,29.83,East,91,0.0,5.0,87,0.00,,,0.00,Wunderground v.1.15,2013-09-21 10:18:00,
2013-09-21 03:23:00,62.9,59.3,29.83,East,91,1.0,3.0,88,0.00,,,0.00,Wunderground v.1.15,2013-09-21 10:23:00,
2013-09-21 03:28:00,62.8,59.2,29.83,East,91,0.0,5.0,88,0.00,,,0.00,Wunderground v.1.15,2013-09-21 10:28:00,
2013-09-21 03:33:00,62.7,59.1,29.83,East,91,0.0,3.0,88,0.00,,,0.00,Wunderground v.1.15,2013-09-21 10:33:00,
2013-09-21 03:38:00,62.6,59.0,29.83,East,91,2.0,3.0,88,0.00,,,0.00,Wunderground v.1.15,2013-09-21 10:38:00,
2013-09-21 03:43:00,62.5,59.2,29.83,East,91,7.0,7.0,89,0.00,,,0.00,Wunderground v.1.15,2013-09-21 10:43:00,
2013-09-21 03:48:00,62.4,59.1,29.83,East,91,2.0,7.0,89,0.00,,,0.00,Wunderground v.1.15,2013-09-21 10:48:00,
2013-09-21 03:53:00,62.4,59.1,29.83,East,91,0.0,5.0,89,0.00,,,0.00,Wunderground v.1.15,2013-09-21 10:53:00,
2013-09-21 03:58:00,62.3,59.0,29.83,East,91,1.0,5.0,89,0.00,,,0.00,Wunderground v.1.15,2013-09-21 10:58:00,
2013-09-21 04:03:00,62.3,59.3,29.83,East,91,1.0,1.0,90,0.00,,,0.00,Wunderground v.1.15,2013-09-21 11:03:00,
2013-09-21 04:08:00,62.3,59.3,29.83,East,91,0.0,2.0,90,0.00,,,0.00,Wunderground v.1.15,2013-09-21 11:08:00,
2013-09-21 04:14:00,62.2,59.2,29.83,East,91,1.0,3.0,90,0.00,,,0.00,Wunderground v.1.15,2013-09-21 11:14:00,
2013-09-21 04:19:00,62.2,59.2,29.82,East,91,0.0,3.0,90,0.00,,,0.00,Wunderground v.1.15,2013-09-21 11:19:00,
2013-09-21 04:24:00,62.1,59.1,29.82,East,91,0.0,1.0,90,0.00,,,0.00,Wunderground v.1.15,2013-09-21 11:24:00,
2013-09-21 04:29:00,62.1,59.1,29.82,East,91,0.0,2.0,90,0.00,,,0.00,Wunderground v.1.15,2013-09-21 11:29:00,
2013-09-21 04:34:00,62.0,59.0,29.82,East,91,0.0,5.0,90,0.00,,,0.00,Wunderground v.1.15,2013-09-21 11:34:00,
2013-09-21 04:39:00,61.9,59.2,29.82,East,91,2.0,5.0,91,0.00,,,0.00,Wunderground v.1.15,2013-09-21 11:39:00,
2013-09-21 04:44:00,61.8,59.1,29.82,East,91,1.0,5.0,91,0.00,,,0.00,Wunderground v.1.15,2013-09-21 11:44:00,
2013-09-21 04:49:00,61.8,59.1,29.82,East,91,2.0,5.0,91,0.00,,,0.00,Wunderground v.1.15,2013-09-21 11:49:00,
2013-09-21 04:54:00,61.7,59.0,29.83,East,91,0.0,2.0,91,0.00,,,0.00,Wunderground v.1.15,2013-09-21 11:54:00,
2013-09-21 04:59:00,61.8,59.1,29.83,East,91,0.0,2.0,91,0.00,,,0.00,Wunderground v.1.15,2013-09-21 11:59:00,
2013-09-21 05:04:00,61.7,59.0,29.82,East,91,0.0,3.0,91,0.00,,,0.00,Wunderground v.1.15,2013-09-21 12:04:00,
2013-09-21 05:09:00,61.6,58.9,29.83,East,91,0.0,3.0,91,0.00,,,0.00,Wunderground v.1.15,2013-09-21 12:09:00,
2013-09-21 05:14:00,61.6,58.9,29.82,East,91,3.0,3.0,91,0.00,,,0.00,Wunderground v.1.15,2013-09-21 12:14:00,
2013-09-21 05:19:00,61.6,58.9,29.82,East,91,1.0,3.0,91,0.00,,,0.00,Wunderground v.1.15,2013-09-21 12:19:00,
2013-09-21 05:24:00,61.6,58.9,29.82,East,91,0.0,3.0,91,0.00,,,0.00,Wunderground v.1.15,2013-09-21 12:24:00,
2013-09-21 05:29:00,61.6,58.9,29.82,East,91,2.0,5.0,91,0.00,,,0.00,Wunderground v.1.15,2013-09-21 12:29:00,
2013-09-21 05:34:00,61.6,58.9,29.82,East,91,0.0,3.0,91,0.00,,,0.00,Wunderground v.1.15,2013-09-21 12:34:00,
2013-09-21 05:39:00,61.6,58.9,29.82,East,91,0.0,3.0,91,0.00,,,0.00,Wunderground v.1.15,2013-09-21 12:39:00,
2013-09-21 05:44:00,61.6,58.9,29.82,East,91,0.0,5.0,91,0.00,,,0.00,Wunderground v.1.15,2013-09-21 12:44:00,
2013-09-21 05:49:00,61.5,58.8,29.82,East,91,1.0,5.0,91,0.00,,,0.00,Wunderground v.1.15,2013-09-21 12:49:00,
2013-09-21 05:54:00,61.4,58.7,29.82,East,92,2.0,6.0,91,0.00,,,0.00,Wunderground v.1.15,2013-09-21 12:54:00,
2013-09-21 05:59:00,61.3,58.7,29.82,East,93,0.0,7.0,91,0.00,,,0.00,Wunderground v.1.15,2013-09-21 12:59:00,
2013-09-21 06:04:00,61.3,58.7,29.83,East,93,0.0,1.0,91,0.00,,,0.00,Wunderground v.1.15,2013-09-21 13:04:00,
2013-09-21 06:09:00,61.2,58.6,29.83,East,93,0.0,0.0,91,0.00,,,0.00,Wunderground v.1.15,2013-09-21 13:09:00,
2013-09-21 06:15:00,61.2,58.6,29.83,East,93,0.0,0.0,91,0.00,,,0.00,Wunderground v.1.15,2013-09-21 13:15:00,
2013-09-21 06:20:00,61.2,58.6,29.83,East,93,0.0,0.0,91,0.00,,,0.00,Wunderground v.1.15,2013-09-21 13:20:00,
2013-09-21 06:25:00,61.2,58.6,29.83,East,93,0.0,1.0,91,0.00,,,0.00,Wunderground v.1.15,2013-09-21 13:25:00,
2013-09-21 06:30:00,61.2,58.2,29.83,East,93,0.0,0.0,90,0.00,,,0.00,Wunderground v.1.15,2013-09-21 13:30:00,
2013-09-21 06:35:00,61.2,58.2,29.83,East,93,0.0,0.0,90,0.00,,,0.00,Wunderground v.1.15,2013-09-21 13:35:00,
2013-09-21 06:40:00,61.3,58.3,29.83,East,93,0.0,0.0,90,0.00,,,0.00,Wunderground v.1.15,2013-09-21 13:40:00,
2013-09-21 06:45:00,61.3,58.3,29.83,East,93,2.0,3.0,90,0.00,,,0.00,Wunderground v.1.15,2013-09-21 13:45:00,
2013-09-21 06:50:00,61.3,58.3,29.83,East,93,0.0,1.0,90,0.00,,,0.00,Wunderground v.1.15,2013-09-21 13:50:00,
2013-09-21 06:55:00,61.3,58.3,29.83,East,93,0.0,1.0,90,0.00,,,0.00,Wunderground v.1.15,2013-09-21 13:55:00,
2013-09-21 07:00:00,61.3,58.3,29.83,East,93,0.0,1.0,90,0.00,,,0.00,Wunderground v.1.15,2013-09-21 14:00:00,
2013-09-21 07:05:00,61.3,58.3,29.83,East,93,0.0,1.0,90,0.00,,,0.00,Wunderground v.1.15,2013-09-21 14:05:00,
2013-09-21 07:10:00,61.3,58.3,29.83,East,93,0.0,0.0,90,0.00,,,0.00,Wunderground v.1.15,2013-09-21 14:10:00,
2013-09-21 07:15:00,61.3,58.3,29.83,East,93,0.0,3.0,90,0.00,,,0.00,Wunderground v.1.15,2013-09-21 14:15:00,
2013-09-21 07:20:00,61.4,58.4,29.83,East,93,0.0,0.0,90,0.00,,,0.00,Wunderground v.1.15,2013-09-21 14:20:00,
2013-09-21 07:25:00,61.5,58.2,29.83,East,93,2.0,3.0,89,0.00,,,0.00,Wunderground v.1.15,2013-09-21 14:25:00,
2013-09-21 07:30:00,61.5,58.2,29.83,East,93,0.0,3.0,89,0.00,,,0.00,Wunderground v.1.15,2013-09-21 14:30:00,
2013-09-21 07:35:00,61.6,58.3,29.83,East,93,2.0,3.0,89,0.00,,,0.00,Wunderground v.1.15,2013-09-21 14:35:00,
2013-09-21 07:40:00,61.6,58.3,29.83,East,93,0.0,1.0,89,0.00,,,0.00,Wunderground v.1.15,2013-09-21 14:40:00,
2013-09-21 07:45:00,61.7,58.4,29.83,East,93,0.0,1.0,89,0.00,,,0.00,Wunderground v.1.15,2013-09-21 14:45:00,
2013-09-21 07:50:00,61.7,58.1,29.83,East,93,0.0,0.0,88,0.00,,,0.00,Wunderground v.1.15,2013-09-21 14:50:00,
2013-09-21 07:55:00,61.8,58.2,29.83,East,93,1.0,1.0,88,0.00,,,0.00,Wunderground v.1.15,2013-09-21 14:55:00,
2013-09-21 08:03:00,61.9,58.3,29.83,East,93,0.0,0.0,88,0.00,,,0.00,Wunderground v.1.15,2013-09-21 15:03:00,
2013-09-21 08:08:00,61.9,58.0,29.83,East,93,0.0,1.0,87,0.00,,,0.00,Wunderground v.1.15,2013-09-21 15:08:00,
2013-09-21 08:13:00,62.0,58.1,29.84,East,93,0.0,1.0,87,0.00,,,0.00,Wunderground v.1.15,2013-09-21 15:13:00,
2013-09-21 08:18:00,62.1,58.2,29.84,East,93,0.0,1.0,87,0.00,,,0.00,Wunderground v.1.15,2013-09-21 15:18:00,
2013-09-21 08:23:00,62.3,58.4,29.84,East,93,0.0,0.0,87,0.00,,,0.00,Wunderground v.1.15,2013-09-21 15:23:00,
2013-09-21 08:28:00,62.4,57.8,29.84,East,93,0.0,2.0,85,0.00,,,0.00,Wunderground v.1.15,2013-09-21 15:28:00,
2013-09-21 08:33:00,62.5,57.9,29.84,East,93,0.0,2.0,85,0.00,,,0.00,Wunderground v.1.15,2013-09-21 15:33:00,
2013-09-21 08:38:00,62.6,58.0,29.84,East,93,0.0,2.0,85,0.00,,,0.00,Wunderground v.1.15,2013-09-21 15:38:00,
2013-09-21 08:43:00,62.8,58.2,29.85,East,93,0.0,1.0,85,0.00,,,0.00,Wunderground v.1.15,2013-09-21 15:43:00,
2013-09-21 08:49:00,62.9,58.0,29.85,East,93,0.0,2.0,84,0.00,,,0.00,Wunderground v.1.15,2013-09-21 15:49:00,
2013-09-21 08:54:00,63.0,58.1,29.85,East,93,0.0,0.0,84,0.00,,,0.00,Wunderground v.1.15,2013-09-21 15:54:00,
2013-09-21 08:59:00,63.2,57.9,29.86,East,93,0.0,0.0,83,0.00,,,0.00,Wunderground v.1.15,2013-09-21 15:59:00,
2013-09-21 09:04:00,63.4,58.1,29.86,East,93,1.0,3.0,83,0.00,,,0.00,Wunderground v.1.15,2013-09-21 16:04:00,
2013-09-21 09:09:00,63.6,58.0,29.86,East,93,1.0,3.0,82,0.00,,,0.00,Wunderground v.1.15,2013-09-21 16:09:00,
2013-09-21 09:14:00,63.6,57.7,29.86,East,93,0.0,3.0,81,0.00,,,0.00,Wunderground v.1.15,2013-09-21 16:14:00,
2013-09-21 09:19:00,63.7,57.8,29.86,East,93,0.0,5.0,81,0.00,,,0.00,Wunderground v.1.15,2013-09-21 16:19:00,
2013-09-21 09:24:00,63.9,58.0,29.86,East,93,0.0,2.0,81,0.00,,,0.00,Wunderground v.1.15,2013-09-21 16:24:00,
2013-09-21 09:29:00,64.0,57.7,29.86,East,93,0.0,2.0,80,0.00,,,0.00,Wunderground v.1.15,2013-09-21 16:29:00,
2013-09-21 09:34:00,64.1,57.8,29.86,East,93,5.0,5.0,80,0.00,,,0.00,Wunderground v.1.15,2013-09-21 16:34:00,
2013-09-21 09:39:00,64.2,57.9,29.86,East,93,0.0,5.0,80,0.00,,,0.00,Wunderground v.1.15,2013-09-21 16:39:00,
2013-09-21 09:44:00,64.4,57.7,29.86,East,93,0.0,5.0,79,0.00,,,0.00,Wunderground v.1.15,2013-09-21 16:44:00,
2013-09-21 09:49:00,64.6,57.9,29.86,East,93,0.0,5.0,79,0.00,,,0.00,Wunderground v.1.15,2013-09-21 16:49:00,
2013-09-21 09:54:00,64.8,57.8,29.87,East,93,0.0,1.0,78,0.00,,,0.00,Wunderground v.1.15,2013-09-21 16:54:00,
2013-09-21 09:59:00,64.9,57.5,29.87,East,93,0.0,1.0,77,0.00,,,0.00,Wunderground v.1.15,2013-09-21 16:59:00,
2013-09-21 10:04:00,65.1,57.7,29.87,East,93,2.0,2.0,77,0.00,,,0.00,Wunderground v.1.15,2013-09-21 17:04:00,
2013-09-21 10:09:00,65.1,57.7,29.86,East,93,0.0,5.0,77,0.00,,,0.00,Wunderground v.1.15,2013-09-21 17:09:00,
2013-09-21 10:14:00,65.2,57.4,29.86,East,93,0.0,3.0,76,0.00,,,0.00,Wunderground v.1.15,2013-09-21 17:14:00,
2013-09-21 10:19:00,65.2,57.1,29.86,East,93,1.0,6.0,75,0.00,,,0.00,Wunderground v.1.15,2013-09-21 17:19:00,
2013-09-21 10:24:00,64.8,57.1,29.87,East,93,0.0,3.0,76,0.00,,,0.00,Wunderground v.1.15,2013-09-21 17:24:00,
2013-09-21 10:29:00,65.0,57.2,29.87,East,93,0.0,3.0,76,0.00,,,0.00,Wunderground v.1.15,2013-09-21 17:29:00,
2013-09-21 10:34:00,65.2,57.4,29.87,East,93,0.0,1.0,76,0.00,,,0.00,Wunderground v.1.15,2013-09-21 17:34:00,
2013-09-21 10:39:00,65.5,57.4,29.87,East,93,0.0,2.0,75,0.00,,,0.00,Wunderground v.1.15,2013-09-21 17:39:00,
2013-09-21 10:44:00,65.5,57.4,29.87,East,93,0.0,0.0,75,0.00,,,0.00,Wunderground v.1.15,2013-09-21 17:44:00,
2013-09-21 10:49:00,65.6,57.1,29.86,East,93,0.0,2.0,74,0.00,,,0.00,Wunderground v.1.15,2013-09-21 17:49:00,
2013-09-21 10:54:00,66.4,57.9,29.86,East,93,0.0,2.0,74,0.00,,,0.00,Wunderground v.1.15,2013-09-21 17:54:00,
2013-09-21 10:59:00,65.7,56.8,29.86,East,93,0.0,2.0,73,0.00,,,0.00,Wunderground v.1.15,2013-09-21 17:59:00,
2013-09-21 11:04:00,65.9,57.4,29.86,East,93,0.0,1.0,74,0.00,,,0.00,Wunderground v.1.15,2013-09-21 18:04:00,
2013-09-21 11:09:00,66.2,57.7,29.86,East,93,3.0,3.0,74,0.00,,,0.00,Wunderground v.1.15,2013-09-21 18:09:00,
2013-09-21 11:14:00,68.0,58.2,29.86,East,93,2.0,5.0,71,0.00,,,0.00,Wunderground v.1.15,2013-09-21 18:14:00,
2013-09-21 11:19:00,67.1,57.0,29.86,East,93,0.0,5.0,70,0.00,,,0.00,Wunderground v.1.15,2013-09-21 18:19:00,
2013-09-21 11:24:00,68.2,58.0,29.86,East,94,0.0,6.0,70,0.00,,,0.00,Wunderground v.1.15,2013-09-21 18:24:00,
2013-09-21 11:29:00,68.2,57.6,29.86,WNW,292,0.0,6.0,69,0.00,,,0.00,Wunderground v.1.15,2013-09-21 18:29:00,
2013-09-21 11:34:00,68.0,57.4,29.86,WNW,292,3.0,4.0,69,0.00,,,0.00,Wunderground v.1.15,2013-09-21 18:34:00,
2013-09-21 11:39:00,68.4,57.8,29.85,NW,310,3.0,6.0,69,0.00,,,0.00,Wunderground v.1.15,2013-09-21 18:39:00,
2013-09-21 11:44:00,68.7,58.1,29.85,NW,310,0.0,4.0,69,0.00,,,0.00,Wunderground v.1.15,2013-09-21 18:44:00,
2013-09-21 11:50:00,70.1,58.6,29.85,North,360,2.0,2.0,67,0.00,,,0.00,Wunderground v.1.15,2013-09-21 18:50:00,
2013-09-21 11:55:00,70.0,57.7,29.84,North,360,0.0,4.0,65,0.00,,,0.00,Wunderground v.1.15,2013-09-21 18:55:00,
2013-09-21 12:00:00,70.3,58.4,29.84,North,360,0.0,1.0,66,0.00,,,0.00,Wunderground v.1.15,2013-09-21 19:00:00,
2013-09-21 12:05:00,70.0,57.7,29.84,North,360,2.0,3.0,65,0.00,,,0.00,Wunderground v.1.15,2013-09-21 19:05:00,
2013-09-21 12:10:00,71.2,58.4,29.84,North,360,1.0,1.0,64,0.00,,,0.00,Wunderground v.1.15,2013-09-21 19:10:00,
2013-09-21 12:15:00,71.8,58.5,29.84,West,279,4.0,6.0,63,0.00,,,0.00,Wunderground v.1.15,2013-09-21 19:15:00,
2013-09-21 12:20:00,70.6,57.8,29.83,WNW,296,1.0,2.0,64,0.00,,,0.00,Wunderground v.1.15,2013-09-21 19:20:00,
2013-09-21 12:25:00,71.0,57.8,29.83,WNW,296,1.0,6.0,63,0.00,,,0.00,Wunderground v.1.15,2013-09-21 19:25:00,
2013-09-21 12:30:00,71.2,57.5,29.83,WNW,296,0.0,1.0,62,0.00,,,0.00,Wunderground v.1.15,2013-09-21 19:30:00,
2013-09-21 12:35:00,72.1,57.9,29.82,WNW,296,0.0,2.0,61,0.00,,,0.00,Wunderground v.1.15,2013-09-21 19:35:00,
2013-09-21 12:40:00,72.6,58.8,29.82,NNW,343,0.0,0.0,62,0.00,,,0.00,Wunderground v.1.15,2013-09-21 19:40:00,
2013-09-21 12:45:00,72.7,58.5,29.82,NE,44,3.0,5.0,61,0.00,,,0.00,Wunderground v.1.15,2013-09-21 19:45:00,
2013-09-21 12:50:00,72.4,57.7,29.81,NE,44,0.0,2.0,60,0.00,,,0.00,Wunderground v.1.15,2013-09-21 19:50:00,
2013-09-21 12:55:00,72.6,57.9,29.81,NE,44,1.0,5.0,60,0.00,,,0.00,Wunderground v.1.15,2013-09-21 19:55:00,
2013-09-21 13:00:00,73.0,57.8,29.81,NE,47,0.0,1.0,59,0.00,,,0.00,Wunderground v.1.15,2013-09-21 20:00:00,
2013-09-21 13:05:00,73.3,58.6,29.81,WNW,288,0.0,2.0,60,0.00,,,0.00,Wunderground v.1.15,2013-09-21 20:05:00,
2013-09-21 13:10:00,74.5,59.2,29.81,WNW,288,2.0,2.0,59,0.00,,,0.00,Wunderground v.1.15,2013-09-21 20:10:00,
2013-09-21 13:15:00,75.0,58.2,29.81,WNW,288,2.0,4.0,56,0.00,,,0.00,Wunderground v.1.15,2013-09-21 20:15:00,
2013-09-21 13:20:00,74.7,58.9,29.81,WNW,288,3.0,3.0,58,0.00,,,0.00,Wunderground v.1.15,2013-09-21 20:20:00,
2013-09-21 13:25:00,75.4,58.6,29.81,West,281,2.0,5.0,56,0.00,,,0.00,Wunderground v.1.15,2013-09-21 20:25:00,
2013-09-21 13:30:00,76.0,58.7,29.80,West,279,1.0,3.0,55,0.00,,,0.00,Wunderground v.1.15,2013-09-21 20:30:00,
2013-09-21 13:35:00,76.1,58.8,29.80,West,259,3.0,7.0,55,0.00,,,0.00,Wunderground v.1.15,2013-09-21 20:35:00,
2013-09-21 13:40:00,76.7,58.8,29.80,WSW,242,3.0,9.0,54,0.00,,,0.00,Wunderground v.1.15,2013-09-21 20:40:00,
2013-09-21 13:45:00,76.4,57.5,29.79,SSW,200,2.0,9.0,52,0.00,,,0.00,Wunderground v.1.15,2013-09-21 20:45:00,
2013-09-21 13:51:00,76.7,57.2,29.79,West,278,1.0,3.0,51,0.00,,,0.00,Wunderground v.1.15,2013-09-21 20:51:00,
2013-09-21 13:56:00,76.5,57.0,29.79,SSE,164,1.0,9.0,51,0.00,,,0.00,Wunderground v.1.15,2013-09-21 20:56:00,
2013-09-21 14:01:00,77.1,57.0,29.78,WSW,253,4.0,8.0,50,0.00,,,0.00,Wunderground v.1.15,2013-09-21 21:01:00,
2013-09-21 14:06:00,77.1,57.0,29.78,WNW,291,5.0,8.0,50,0.00,,,0.00,Wunderground v.1.15,2013-09-21 21:06:00,
2013-09-21 14:11:00,77.5,56.3,29.78,WNW,283,7.0,7.0,48,0.00,,,0.00,Wunderground v.1.15,2013-09-21 21:11:00,
2013-09-21 14:16:00,76.8,56.2,29.78,West,265,3.0,15.0,49,0.00,,,0.00,Wunderground v.1.15,2013-09-21 21:16:00,
2013-09-21 14:21:00,77.3,57.2,29.78,SSW,194,2.0,6.0,50,0.00,,,0.00,Wunderground v.1.15,2013-09-21 21:21:00,
2013-09-21 14:26:00,77.4,58.4,29.78,West,281,1.0,6.0,52,0.00,,,0.00,Wunderground v.1.15,2013-09-21 21:26:00,
2013-09-21 14:31:00,77.4,58.4,29.77,West,280,3.0,3.0,52,0.00,,,0.00,Wunderground v.1.15,2013-09-21 21:31:00,
2013-09-21 14:36:00,76.7,58.3,29.77,West,269,5.0,7.0,53,0.00,,,0.00,Wunderground v.1.15,2013-09-21 21:36:00,
2013-09-21 14:41:00,76.2,57.8,29.77,South,186,1.0,6.0,53,0.00,,,0.00,Wunderground v.1.15,2013-09-21 21:41:00,
2013-09-21 14:46:00,76.7,58.3,29.77,WSW,246,5.0,6.0,53,0.00,,,0.00,Wunderground v.1.15,2013-09-21 21:46:00,
2013-09-21 14:52:00,77.0,58.6,29.76,West,272,1.0,5.0,53,0.00,,,0.00,Wunderground v.1.15,2013-09-21 21:52:00,
2013-09-21 14:57:00,76.4,58.5,29.76,SW,223,1.0,5.0,54,0.00,,,0.00,Wunderground v.1.15,2013-09-21 21:57:00,
2013-09-21 15:03:00,77.1,59.2,29.76,SW,234,3.0,9.0,54,0.00,,,0.00,Wunderground v.1.15,2013-09-21 22:03:00,
2013-09-21 15:07:00,76.5,59.1,29.75,WNW,284,1.0,9.0,55,0.00,,,0.00,Wunderground v.1.15,2013-09-21 22:07:00,
2013-09-21 15:12:00,77.3,59.4,29.75,SSW,211,1.0,5.0,54,0.00,,,0.00,Wunderground v.1.15,2013-09-21 22:12:00,
2013-09-21 15:18:00,76.9,59.0,29.75,South,191,0.0,8.0,54,0.00,,,0.00,Wunderground v.1.15,2013-09-21 22:18:00,
2013-09-21 15:23:00,77.6,59.1,29.75,SW,232,3.0,4.0,53,0.00,,,0.00,Wunderground v.1.15,2013-09-21 22:23:00,
2013-09-21 15:28:00,77.6,59.1,29.75,WSW,240,4.0,8.0,53,0.00,,,0.00,Wunderground v.1.15,2013-09-21 22:28:00,
2013-09-21 15:33:00,77.1,58.6,29.75,West,266,3.0,11.0,53,0.00,,,0.00,Wunderground v.1.15,2013-09-21 22:33:00,
2013-09-21 15:38:00,76.9,59.0,29.74,WSW,253,5.0,11.0,54,0.00,,,0.00,Wunderground v.1.15,2013-09-21 22:38:00,
2013-09-21 15:43:00,77.0,59.1,29.74,West,266,6.0,8.0,54,0.00,,,0.00,Wunderground v.1.15,2013-09-21 22:43:00,
2013-09-21 15:48:00,76.5,59.1,29.74,WSW,245,4.0,9.0,55,0.00,,,0.00,Wunderground v.1.15,2013-09-21 22:48:00,
2013-09-21 15:53:00,77.0,59.6,29.75,West,281,9.0,9.0,55,0.00,,,0.00,Wunderground v.1.15,2013-09-21 22:53:00,
2013-09-21 15:58:00,76.3,59.9,29.74,WNW,287,6.0,11.0,57,0.00,,,0.00,Wunderground v.1.15,2013-09-21 22:58:00,
2013-09-21 16:03:00,75.4,59.6,29.75,NW,309,8.0,15.0,58,0.00,,,0.00,Wunderground v.1.15,2013-09-21 23:03:00,
2013-09-21 16:08:00,74.4,59.6,29.75,WNW,292,2.0,15.0,60,0.00,,,0.00,Wunderground v.1.15,2013-09-21 23:08:00,
2013-09-21 16:14:00,74.0,59.7,29.75,West,272,1.0,9.0,61,0.00,,,0.00,Wunderground v.1.15,2013-09-21 23:14:00,
2013-09-21 16:19:00,74.0,60.2,29.75,WNW,289,5.0,10.0,62,0.00,,,0.00,Wunderground v.1.15,2013-09-21 23:19:00,
2013-09-21 16:24:00,73.4,60.0,29.74,West,277,1.0,7.0,63,0.00,,,0.00,Wunderground v.1.15,2013-09-21 23:24:00,
2013-09-21 16:29:00,73.0,60.5,29.75,WSW,237,6.0,8.0,65,0.00,,,0.00,Wunderground v.1.15,2013-09-21 23:29:00,
2013-09-21 16:34:00,72.4,60.4,29.74,WNW,295,3.0,8.0,66,0.00,,,0.00,Wunderground v.1.15,2013-09-21 23:34:00,
2013-09-21 16:39:00,72.4,60.4,29.74,WNW,290,2.0,8.0,66,0.00,,,0.00,Wunderground v.1.15,2013-09-21 23:39:00,
2013-09-21 16:44:00,72.2,59.8,29.74,WNW,288,2.0,11.0,65,0.00,,,0.00,Wunderground v.1.15,2013-09-21 23:44:00,
2013-09-21 16:49:00,71.7,60.2,29.74,WNW,290,2.0,11.0,67,0.00,,,0.00,Wunderground v.1.15,2013-09-21 23:49:00,
2013-09-21 16:54:00,71.1,60.4,29.75,WNW,287,1.0,13.0,69,0.00,,,0.00,Wunderground v.1.15,2013-09-21 23:54:00,
2013-09-21 16:59:00,70.8,60.5,29.74,SW,234,1.0,13.0,70,0.00,,,0.00,Wunderground v.1.15,2013-09-21 23:59:00,
2013-09-21 17:04:00,70.5,60.2,29.74,WSW,239,3.0,9.0,70,0.00,,,0.00,Wunderground v.1.15,2013-09-22 00:04:00,
2013-09-21 17:09:00,70.0,60.2,29.74,West,264,6.0,11.0,71,0.00,,,0.00,Wunderground v.1.15,2013-09-22 00:09:00,
2013-09-21 17:14:00,69.6,60.2,29.74,West,260,0.0,12.0,72,0.00,,,0.00,Wunderground v.1.15,2013-09-22 00:14:00,
2013-09-21 17:19:00,69.4,60.4,29.74,WNW,300,3.0,12.0,73,0.00,,,0.00,Wunderground v.1.15,2013-09-22 00:19:00,
2013-09-21 17:24:00,69.0,60.7,29.74,West,279,8.0,9.0,75,0.00,,,0.00,Wunderground v.1.15,2013-09-22 00:24:00,
2013-09-21 17:29:00,68.8,60.6,29.74,WSW,240,2.0,9.0,75,0.00,,,0.00,Wunderground v.1.15,2013-09-22 00:29:00,
2013-09-21 17:35:00,68.6,60.7,29.74,South,171,0.0,4.0,76,0.00,,,0.00,Wunderground v.1.15,2013-09-22 00:35:00,
2013-09-21 17:40:00,68.6,60.7,29.74,WNW,286,3.0,3.0,76,0.00,,,0.00,Wunderground v.1.15,2013-09-22 00:40:00,
2013-09-21 17:45:00,68.2,60.7,29.74,WSW,256,1.0,9.0,77,0.00,,,0.00,Wunderground v.1.15,2013-09-22 00:45:00,
2013-09-21 17:50:00,68.1,60.2,29.74,West,270,1.0,3.0,76,0.00,,,0.00,Wunderground v.1.15,2013-09-22 00:50:00,
2013-09-21 17:55:00,68.1,60.2,29.74,NW,321,6.0,7.0,76,0.00,,,0.00,Wunderground v.1.15,2013-09-22 00:55:00,
2013-09-21 18:01:00,68.0,60.2,29.73,SW,236,7.0,7.0,76,0.00,,,0.00,Wunderground v.1.15,2013-09-22 01:01:00,
2013-09-21 18:06:00,67.7,59.9,29.73,WSW,249,0.0,11.0,76,0.00,,,0.00,Wunderground v.1.15,2013-09-22 01:06:00,
2013-09-21 18:11:00,67.5,59.7,29.73,West,261,0.0,5.0,76,0.00,,,0.00,Wunderground v.1.15,2013-09-22 01:11:00,
2013-09-21 18:16:00,67.2,59.4,29.74,WSW,250,9.0,9.0,76,0.00,,,0.00,Wunderground v.1.15,2013-09-22 01:16:00,
2013-09-21 18:21:00,66.9,59.5,29.73,SW,236,0.0,3.0,77,0.00,,,0.00,Wunderground v.1.15,2013-09-22 01:21:00,
2013-09-21 18:26:00,66.6,59.2,29.74,WNW,283,1.0,12.0,77,0.00,,,0.00,Wunderground v.1.15,2013-09-22 01:26:00,
2013-09-21 18:31:00,66.3,59.2,29.74,SSW,211,0.0,5.0,78,0.00,,,0.00,Wunderground v.1.15,2013-09-22 01:31:00,
2013-09-21 18:36:00,66.0,58.9,29.74,WNW,291,0.0,6.0,78,0.00,,,0.00,Wunderground v.1.15,2013-09-22 01:36:00,
2013-09-21 18:41:00,65.9,58.8,29.74,North,355,0.0,1.0,78,0.00,,,0.00,Wunderground v.1.15,2013-09-22 01:41:00,
2013-09-21 18:46:00,65.6,58.2,29.74,North,355,0.0,1.0,77,0.00,,,0.00,Wunderground v.1.15,2013-09-22 01:46:00,
2013-09-21 18:51:00,65.3,57.5,29.74,North,355,0.0,0.0,76,0.00,,,0.00,Wunderground v.1.15,2013-09-22 01:51:00,
2013-09-21 18:56:00,65.0,57.2,29.74,North,355,0.0,1.0,76,0.00,,,0.00,Wunderground v.1.15,2013-09-22 01:56:00,
2013-09-21 19:02:00,64.7,57.0,29.74,North,355,0.0,0.0,76,0.00,,,0.00,Wunderground v.1.15,2013-09-22 02:02:00,
2013-09-21 19:07:00,64.5,56.4,29.74,North,355,0.0,1.0,75,0.00,,,0.00,Wunderground v.1.15,2013-09-22 02:07:00,
2013-09-21 19:12:00,64.2,56.1,29.74,North,355,0.0,3.0,75,0.00,,,0.00,Wunderground v.1.15,2013-09-22 02:12:00,
2013-09-21 19:17:00,64.1,56.4,29.74,North,355,0.0,3.0,76,0.00,,,0.00,Wunderground v.1.15,2013-09-22 02:17:00,
2013-09-21 19:22:00,63.9,56.2,29.75,North,355,0.0,0.0,76,0.00,,,0.00,Wunderground v.1.15,2013-09-22 02:22:00,
2013-09-21 19:27:00,63.7,56.0,29.75,NNW,329,0.0,5.0,76,0.00,,,0.00,Wunderground v.1.15,2013-09-22 02:27:00,
2013-09-21 19:32:00,63.5,55.4,29.75,WSW,241,0.0,6.0,75,0.00,,,0.00,Wunderground v.1.15,2013-09-22 02:32:00,
2013-09-21 19:37:00,63.3,55.6,29.75,WSW,250,5.0,6.0,76,0.00,,,0.00,Wunderground v.1.15,2013-09-22 02:37:00,
2013-09-21 19:42:00,63.1,55.0,29.75,SSW,199,0.0,5.0,75,0.00,,,0.00,Wunderground v.1.15,2013-09-22 02:42:00,
2013-09-21 19:47:00,63.0,55.3,29.75,WSW,242,0.0,5.0,76,0.00,,,0.00,Wunderground v.1.15,2013-09-22 02:47:00,
2013-09-21 19:52:00,62.9,55.2,29.75,SW,235,0.0,1.0,76,0.00,,,0.00,Wunderground v.1.15,2013-09-22 02:52:00,
2013-09-21 19:57:00,62.8,55.1,29.75,SW,235,0.0,1.0,76,0.00,,,0.00,Wunderground v.1.15,2013-09-22 02:57:00,
2013-09-21 20:03:00,62.7,55.4,29.75,SW,235,1.0,1.0,77,0.00,,,0.00,Wunderground v.1.15,2013-09-22 03:03:00,
2013-09-21 20:08:00,62.5,55.2,29.75,SW,235,0.0,1.0,77,0.00,,,0.00,Wunderground v.1.15,2013-09-22 03:08:00,
2013-09-21 20:13:00,62.4,55.4,29.75,SW,235,0.0,1.0,78,0.00,,,0.00,Wunderground v.1.15,2013-09-22 03:13:00,
2013-09-21 20:18:00,62.3,55.4,29.76,SW,235,0.0,1.0,78,0.00,,,0.00,Wunderground v.1.15,2013-09-22 03:18:00,
2013-09-21 20:23:00,62.1,55.5,29.76,SW,234,0.0,3.0,79,0.00,,,0.00,Wunderground v.1.15,2013-09-22 03:23:00,
2013-09-21 20:28:00,62.0,55.4,29.76,SW,234,0.0,3.0,79,0.00,,,0.00,Wunderground v.1.15,2013-09-22 03:28:00,
2013-09-21 20:33:00,61.9,55.7,29.76,SW,234,0.0,1.0,80,0.00,,,0.00,Wunderground v.1.15,2013-09-22 03:33:00,
2013-09-21 20:38:00,61.8,55.6,29.76,SW,234,0.0,1.0,80,0.00,,,0.00,Wunderground v.1.15,2013-09-22 03:38:00,
2013-09-21 20:43:00,61.7,55.5,29.76,SW,234,0.0,0.0,80,0.00,,,0.00,Wunderground v.1.15,2013-09-22 03:43:00,
2013-09-21 20:48:00,61.6,55.7,29.76,SW,234,0.0,0.0,81,0.00,,,0.00,Wunderground v.1.15,2013-09-22 03:48:00,
2013-09-21 20:53:00,61.5,55.6,29.77,West,275,0.0,2.0,81,0.00,,,0.00,Wunderground v.1.15,2013-09-22 03:53:00,
2013-09-21 20:58:00,61.4,55.9,29.76,West,274,0.0,3.0,82,0.00,,,0.00,Wunderground v.1.15,2013-09-22 03:58:00,
2013-09-21 21:03:00,61.3,55.8,29.76,West,274,0.0,2.0,82,0.00,,,0.00,Wunderground v.1.15,2013-09-22 04:03:00,
2013-09-21 21:04:00,61.3,56.1,29.77,West,274,0.0,2.0,83,0.00,,,0.00,Wunderground v.1.15,2013-09-22 04:04:00,
2013-09-21 21:09:00,61.1,55.9,29.76,West,274,0.0,2.0,83,0.00,,,0.00,Wunderground v.1.15,2013-09-22 04:09:00,
2013-09-21 21:14:00,61.0,55.8,29.77,West,274,0.0,0.0,83,0.00,,,0.00,Wunderground v.1.15,2013-09-22 04:14:00,
2013-09-21 21:19:00,60.9,56.0,29.76,West,274,0.0,0.0,84,0.00,,,0.00,Wunderground v.1.15,2013-09-22 04:19:00,
2013-09-21 21:25:00,60.8,55.9,29.76,West,274,0.0,1.0,84,0.00,,,0.00,Wunderground v.1.15,2013-09-22 04:25:00,
2013-09-21 21:30:00,60.6,55.7,29.76,West,274,0.0,0.0,84,0.00,,,0.00,Wunderground v.1.15,2013-09-22 04:30:00,
2013-09-21 21:35:00,60.5,56.0,29.77,West,274,0.0,0.0,85,0.00,,,0.00,Wunderground v.1.15,2013-09-22 04:35:00,
2013-09-21 21:40:00,60.5,56.0,29.77,West,274,0.0,0.0,85,0.00,,,0.00,Wunderground v.1.15,2013-09-22 04:40:00,
2013-09-21 21:45:00,60.3,55.8,29.76,West,274,0.0,0.0,85,0.00,,,0.00,Wunderground v.1.15,2013-09-22 04:45:00,
2013-09-21 21:50:00,60.2,56.0,29.77,West,274,0.0,0.0,86,0.00,,,0.00,Wunderground v.1.15,2013-09-22 04:50:00,
2013-09-21 21:55:00,60.1,55.9,29.77,West,274,0.0,1.0,86,0.00,,,0.00,Wunderground v.1.15,2013-09-22 04:55:00,
2013-09-21 22:03:00,60.0,56.1,29.77,West,274,0.0,0.0,87,0.00,,,0.00,Wunderground v.1.15,2013-09-22 05:03:00,
2013-09-21 22:08:00,59.9,56.0,29.77,West,274,0.0,0.0,87,0.00,,,0.00,Wunderground v.1.15,2013-09-22 05:08:00,
2013-09-21 22:13:00,59.8,55.9,29.77,West,274,0.0,0.0,87,0.00,,,0.00,Wunderground v.1.15,2013-09-22 05:13:00,
2013-09-21 22:18:00,59.7,56.1,29.77,West,274,0.0,0.0,88,0.00,,,0.00,Wunderground v.1.15,2013-09-22 05:18:00,
2013-09-21 22:23:00,59.6,56.0,29.77,West,274,0.0,1.0,88,0.00,,,0.00,Wunderground v.1.15,2013-09-22 05:23:00,
2013-09-21 22:28:00,59.6,56.0,29.77,West,274,0.0,1.0,88,0.00,,,0.00,Wunderground v.1.15,2013-09-22 05:28:00,
2013-09-21 22:33:00,59.5,55.9,29.77,West,274,0.0,0.0,88,0.00,,,0.00,Wunderground v.1.15,2013-09-22 05:33:00,
2013-09-21 22:38:00,59.4,55.8,29.77,West,274,0.0,0.0,88,0.00,,,0.00,Wunderground v.1.15,2013-09-22 05:38:00,
2013-09-21 22:43:00,59.3,55.7,29.77,West,274,0.0,0.0,88,0.00,,,0.00,Wunderground v.1.15,2013-09-22 05:43:00,
2013-09-21 22:48:00,59.2,55.6,29.77,West,274,0.0,0.0,88,0.00,,,0.00,Wunderground v.1.15,2013-09-22 05:48:00,
2013-09-21 22:53:00,59.2,56.0,29.77,West,274,0.0,0.0,89,0.00,,,0.00,Wunderground v.1.15,2013-09-22 05:53:00,
2013-09-21 22:58:00,59.0,55.8,29.77,West,274,0.0,1.0,89,0.00,,,0.00,Wunderground v.1.15,2013-09-22 05:58:00,
2013-09-21 23:03:00,59.0,56.1,29.77,West,274,0.0,0.0,90,0.00,,,0.00,Wunderground v.1.15,2013-09-22 06:03:00,
2013-09-21 23:08:00,58.9,56.0,29.77,West,274,0.0,0.0,90,0.00,,,0.00,Wunderground v.1.15,2013-09-22 06:08:00,
2013-09-21 23:13:00,58.9,56.0,29.76,West,274,0.0,0.0,90,0.00,,,0.00,Wunderground v.1.15,2013-09-22 06:13:00,
2013-09-21 23:18:00,58.8,55.9,29.76,West,274,0.0,2.0,90,0.00,,,0.00,Wunderground v.1.15,2013-09-22 06:18:00,
2013-09-21 23:23:00,58.8,56.2,29.77,West,274,0.0,0.0,91,0.00,,,0.00,Wunderground v.1.15,2013-09-22 06:23:00,
2013-09-21 23:28:00,58.7,56.1,29.76,West,274,0.0,0.0,91,0.00,,,0.00,Wunderground v.1.15,2013-09-22 06:28:00,
2013-09-21 23:33:00,58.7,56.1,29.77,West,274,0.0,0.0,91,0.00,,,0.00,Wunderground v.1.15,2013-09-22 06:33:00,
2013-09-21 23:38:00,58.6,56.0,29.76,West,274,0.0,0.0,91,0.00,,,0.00,Wunderground v.1.15,2013-09-22 06:38:00,
2013-09-21 23:43:00,58.6,56.0,29.76,West,274,0.0,0.0,91,0.00,,,0.00,Wunderground v.1.15,2013-09-22 06:43:00,
2013-09-21 23:48:00,58.5,55.9,29.76,West,274,0.0,0.0,91,0.00,,,0.00,Wunderground v.1.15,2013-09-22 06:48:00,
2013-09-21 23:53:00,58.5,55.9,29.77,West,274,0.0,0.0,91,0.00,,,0.00,Wunderground v.1.15,2013-09-22 06:53:00,
2013-09-21 23:58:00,58.4,56.1,29.77,West,274,0.0,0.0,92,0.00,,,0.00,Wunderground v.1.15,2013-09-22 06:58:00,